| time (UTC) | temp F | wind direction | speed knots | gust knots | rain 1hr in | rain 24hr in | rain mn in | humidity % | barometer mb |
| 20260906123024 | 88 | 214 | 11.3 | 14.8 | 0.00 | 0.00 | 0.00 | 64 | 1010.1 |
| 20260906122514 | 88 | 205 | 10.4 | 14.8 | 0.00 | 0.00 | 0.00 | 65 | 1010.1 |
| 20260906122016 | 88 | 204 | 11.3 | 14.8 | 0.00 | 0.00 | 0.00 | 63 | 1010.1 |
| 20260906121527 | 88 | 195 | 11.3 | 14.8 | 0.00 | 0.00 | 0.00 | 57 | 1010.2 |
| 20260906121018 | 88 | 212 | 9.6 | 14.8 | 0.00 | 0.00 | 0.00 | 62 | 1010.2 |
| 20260906120517 | 87 | 235 | 11.3 | 14.8 | 0.00 | 0.00 | 0.00 | 62 | 1010.3 |
| 20260906120038 | 87 | 223 | 8.7 | 14.8 | 0.00 | 0.00 | 0.00 | 68 | 1010.3 |
| 20260906115516 | 87 | 212 | 11.3 | 14.8 | 0.00 | 0.00 | 0.00 | 66 | 1010.4 |
| 20260906115017 | 88 | 196 | 10.4 | 14.8 | 0.00 | 0.00 | 0.00 | 64 | 1010.3 |
| 20260906114544 | 87 | 179 | 11.3 | 14.8 | 0.00 | 0.00 | 0.00 | 67 | 1010.2 |
| 20260906114012 | 87 | 236 | 9.6 | 14.8 | 0.00 | 0.00 | 0.00 | 65 | 1010.3 |
| 20260906113512 | 87 | 209 | 8.7 | 16.5 | 0.00 | 0.00 | 0.00 | 67 | 1010.3 |
| 20260906113024 | 87 | 210 | 9.6 | 17.4 | 0.00 | 0.00 | 0.00 | 67 | 1010.3 |
| 20260906112513 | 87 | 201 | 13.0 | 17.4 | 0.00 | 0.00 | 0.00 | 67 | 1010.4 |
| 20260906112014 | 87 | 236 | 9.6 | 16.5 | 0.00 | 0.00 | 0.00 | 67 | 1010.5 |
| 20260906111525 | 87 | 158 | 9.6 | 16.5 | 0.00 | 0.00 | 0.00 | 68 | 1010.4 |
| 20260906111015 | 87 | 166 | 9.6 | 15.6 | 0.00 | 0.00 | 0.00 | 66 | 1010.5 |
| 20260906110518 | 87 | 149 | 9.6 | 13.9 | 0.00 | 0.00 | 0.00 | 64 | 1010.6 |
| 20260906110032 | 87 | 188 | 11.3 | 15.6 | 0.00 | 0.00 | 0.00 | 64 | 1010.7 |
| 20260906105521 | 87 | 175 | 13.0 | 15.6 | 0.00 | 0.00 | 0.00 | 63 | 1010.7 |
| 20260906105016 | 87 | 207 | 10.4 | 17.4 | 0.00 | 0.00 | 0.00 | 64 | 1010.7 |
| 20260906104535 | 86 | 173 | 12.2 | 17.4 | 0.00 | 0.00 | 0.00 | 64 | 1010.7 |
| 20260906104020 | 86 | 179 | 11.3 | 15.6 | 0.00 | 0.00 | 0.00 | 64 | 1010.7 |
| 20260906103519 | 86 | 165 | 10.4 | 15.6 | 0.00 | 0.00 | 0.00 | 64 | 1010.8 |
| 20260906103034 | 86 | 121 | 11.3 | 15.6 | 0.00 | 0.00 | 0.00 | 64 | 1010.8 |
| 20260906102511 | 86 | 158 | 10.4 | 13.9 | 0.00 | 0.00 | 0.00 | 64 | 1010.8 |
| 20260906102012 | 86 | 103 | 10.4 | 13.9 | 0.00 | 0.00 | 0.00 | 62 | 1010.9 |
| 20260906101524 | 86 | 141 | 8.7 | 13.9 | 0.00 | 0.00 | 0.00 | 63 | 1011.0 |
| 20260906101013 | 85 | 163 | 9.6 | 12.2 | 0.00 | 0.00 | 0.00 | 66 | 1011.1 |
| 20260906100516 | 86 | 148 | 9.6 | 12.2 | 0.00 | 0.00 | 0.00 | 65 | 1011.0 |
| 20260906100036 | 86 | 143 | 8.7 | 13.0 | 0.00 | 0.00 | 0.00 | 65 | 1011.0 |
| 20260906095525 | 85 | 153 | 10.4 | 13.0 | 0.00 | 0.00 | 0.00 | 64 | 1010.9 |
| 20260906095018 | 85 | 150 | 9.6 | 13.9 | 0.00 | 0.00 | 0.00 | 66 | 1011.0 |
| 20260906094531 | 85 | 153 | 9.6 | 13.9 | 0.00 | 0.00 | 0.00 | 68 | 1011.0 |
| 20260906094021 | 84 | 139 | 8.7 | 13.9 | 0.00 | 0.00 | 0.00 | 68 | 1011.1 |
| 20260906093519 | 84 | 169 | 9.6 | 13.9 | 0.00 | 0.00 | 0.00 | 70 | 1011.1 |
| 20260906093033 | 84 | 146 | 11.3 | 13.0 | 0.00 | 0.00 | 0.00 | 71 | 1011.2 |
| 20260906092518 | 84 | 135 | 9.6 | 12.2 | 0.00 | 0.00 | 0.00 | 71 | 1011.2 |
| 20260906092019 | 84 | 189 | 8.7 | 12.2 | 0.00 | 0.00 | 0.00 | 71 | 1011.2 |
| 20260906091536 | 84 | 134 | 7.8 | 12.2 | 0.00 | 0.00 | 0.00 | 70 | 1011.2 |
| 20260906091012 | 84 | 146 | 8.7 | 12.2 | 0.00 | 0.00 | 0.00 | 71 | 1011.2 |
| 20260906090513 | 84 | 146 | 8.7 | 11.3 | 0.00 | 0.00 | 0.00 | 72 | 1011.2 |
| 20260906090028 | 84 | 144 | 7.8 | 11.3 | 0.00 | 0.00 | 0.00 | 72 | 1011.2 |
| 20260906085514 | 84 | 133 | 8.7 | 11.3 | 0.00 | 0.00 | 0.00 | 73 | 1011.1 |
| 20260906085015 | 84 | 130 | 7.8 | 10.4 | 0.00 | 0.00 | 0.00 | 72 | 1011.2 |
| 20260906084532 | 85 | 139 | 7.8 | 10.4 | 0.00 | 0.00 | 0.00 | 71 | 1011.3 |
| 20260906084017 | 84 | 165 | 7.8 | 11.3 | 0.00 | 0.00 | 0.00 | 72 | 1011.3 |
| 20260906083516 | 84 | 128 | 8.7 | 11.3 | 0.00 | 0.00 | 0.00 | 71 | 1011.3 |
| 20260906083033 | 84 | 134 | 7.0 | 12.2 | 0.00 | 0.00 | 0.00 | 70 | 1011.2 |
| 20260906082518 | 84 | 120 | 6.1 | 13.0 | 0.00 | 0.00 | 0.00 | 72 | 1011.2 |
| 20260906082019 | 84 | 127 | 9.6 | 13.0 | 0.00 | 0.00 | 0.00 | 72 | 1011.1 |
| 20260906081535 | 84 | 125 | 7.8 | 11.3 | 0.00 | 0.00 | 0.00 | 72 | 1011.1 |
| 20260906081018 | 83 | 125 | 7.8 | 11.3 | 0.00 | 0.00 | 0.00 | 73 | 1011.1 |
| 20260906080520 | 84 | 116 | 7.8 | 10.4 | 0.00 | 0.00 | 0.00 | 71 | 1011.1 |
| 20260906080035 | 84 | 141 | 7.8 | 10.4 | 0.00 | 0.00 | 0.00 | 71 | 1011.1 |
| 20260906075513 | 84 | 127 | 7.8 | 10.4 | 0.00 | 0.00 | 0.00 | 70 | 1011.3 |
| 20260906075017 | 84 | 93 | 7.0 | 9.6 | 0.00 | 0.00 | 0.00 | 70 | 1011.2 |
| 20260906074528 | 84 | 123 | 7.0 | 9.6 | 0.00 | 0.00 | 0.00 | 70 | 1011.2 |
| 20260906074017 | 84 | 141 | 7.0 | 9.6 | 0.00 | 0.00 | 0.00 | 70 | 1011.3 |
| 20260906073517 | 84 | 119 | 5.2 | 8.7 | 0.00 | 0.00 | 0.00 | 70 | 1011.3 |
| 20260906073032 | 84 | 100 | 5.2 | 8.7 | 0.00 | 0.00 | 0.00 | 70 | 1011.3 |
| 20260906072516 | 84 | 117 | 6.1 | 8.7 | 0.00 | 0.00 | 0.00 | 69 | 1011.4 |
| 20260906072018 | 84 | 122 | 5.2 | 7.8 | 0.00 | 0.00 | 0.00 | 68 | 1011.3 |
| 20260906071533 | 84 | 135 | 3.5 | 7.8 | 0.00 | 0.00 | 0.00 | 69 | 1011.3 |
| 20260906071017 | 84 | 160 | 3.5 | 7.0 | 0.00 | 0.00 | 0.00 | 69 | 1011.2 |
| 20260906070520 | 84 | 120 | 3.5 | 6.1 | 0.00 | 0.00 | 0.00 | 69 | 1011.3 |
| 20260906070036 | 84 | 113 | 4.3 | 5.2 | 0.00 | 0.00 | 0.00 | 67 | 1011.2 |
| 20260906065524 | 84 | 76 | 3.5 | 6.1 | 0.00 | 0.00 | 0.00 | 68 | 1011.1 |
| 20260906065019 | 84 | 85 | 3.5 | 6.1 | 0.00 | 0.00 | 0.00 | 69 | 1011.1 |
| 20260906064534 | 84 | 75 | 3.5 | 5.2 | 0.00 | 0.00 | 0.00 | 68 | 1011.1 |
| 20260906064016 | 84 | 96 | 3.5 | 5.2 | 0.00 | 0.00 | 0.00 | 69 | 1011.1 |
| 20260906063516 | 84 | 65 | 2.6 | 4.3 | 0.00 | 0.00 | 0.00 | 67 | 1011.1 |
| 20260906063028 | 84 | 46 | 2.6 | 7.0 | 0.00 | 0.00 | 0.00 | 68 | 1011.1 |
| 20260906062517 | 84 | 57 | 4.3 | 7.0 | 0.00 | 0.00 | 0.00 | 67 | 1011.0 |
| 20260906062016 | 84 | 62 | 2.6 | 5.2 | 0.00 | 0.00 | 0.00 | 67 | 1011.0 |
| 20260906061536 | 85 | 64 | 2.6 | 4.3 | 0.00 | 0.00 | 0.00 | 65 | 1011.1 |
| 20260906061018 | 84 | 49 | 1.7 | 7.0 | 0.00 | 0.00 | 0.00 | 65 | 1011.1 |
| 20260906060519 | 84 | 26 | 2.6 | 7.0 | 0.00 | 0.00 | 0.00 | 65 | 1011.0 |
| 20260906060034 | 84 | 353 | 3.5 | 6.1 | 0.00 | 0.00 | 0.00 | 66 | 1011.0 |
| 20260906055521 | 83 | 46 | 0.9 | 5.2 | 0.00 | 0.00 | 0.00 | 68 | 1010.9 |
| 20260906055021 | 82 | 21 | 2.6 | 6.1 | 0.00 | 0.00 | 0.00 | 69 | 1010.9 |
| 20260906054552 | 82 | 331 | 3.5 | 6.1 | 0.00 | 0.00 | 0.00 | 69 | 1010.9 |
| 20260906054016 | 81 | 316 | 4.3 | 7.8 | 0.00 | 0.00 | 0.00 | 70 | 1010.8 |
| 20260906053516 | 81 | 299 | 5.2 | 7.8 | 0.00 | 0.00 | 0.00 | 71 | 1010.8 |
| 20260906053037 | 81 | 297 | 3.5 | 6.1 | 0.00 | 0.00 | 0.00 | 72 | 1010.8 |
| 20260906052515 | 81 | 304 | 3.5 | 6.1 | 0.00 | 0.00 | 0.00 | 72 | 1010.8 |
| 20260906052017 | 80 | 311 | 3.5 | 5.2 | 0.00 | 0.00 | 0.00 | 73 | 1010.8 |
| 20260906051528 | 80 | 285 | 2.6 | 4.3 | 0.00 | 0.00 | 0.00 | 73 | 1010.8 |
| 20260906051015 | 80 | 304 | 1.7 | 4.3 | 0.00 | 0.00 | 0.00 | 74 | 1010.8 |
| 20260906050515 | 79 | 319 | 2.6 | 4.3 | 0.00 | 0.00 | 0.00 | 74 | 1010.9 |
| 20260906050037 | 79 | 310 | 1.7 | 5.2 | 0.00 | 0.00 | 0.00 | 74 | 1010.9 |
| 20260906045520 | 79 | 299 | 3.5 | 5.2 | 0.00 | 0.00 | 0.00 | 74 | 1011.0 |
| 20260906045019 | 79 | 309 | 2.6 | 3.5 | 0.00 | 0.00 | 0.00 | 73 | 1010.9 |
| 20260906044536 | 79 | 302 | 1.7 | 3.5 | 0.00 | 0.00 | 0.00 | 73 | 1011.0 |
| 20260906044021 | 79 | 330 | 1.7 | 3.5 | 0.00 | 0.00 | 0.00 | 74 | 1011.0 |
| 20260906043515 | 79 | 341 | 1.7 | 4.3 | 0.00 | 0.00 | 0.00 | 74 | 1010.9 |
| 20260906043035 | 79 | 340 | 1.7 | 6.1 | 0.00 | 0.00 | 0.00 | 74 | 1010.9 |
| 20260906042515 | 79 | 326 | 2.6 | 6.1 | 0.00 | 0.00 | 0.00 | 74 | 1010.9 |
| 20260906042018 | 78 | 34 | 3.5 | 7.0 | 0.00 | 0.00 | 0.00 | 75 | 1010.9 |
| 20260906041536 | 78 | 23 | 2.6 | 7.0 | 0.00 | 0.00 | 0.00 | 75 | 1010.9 |
| 20260906041016 | 78 | 340 | 4.3 | 7.0 | 0.00 | 0.00 | 0.00 | 75 | 1011.0 |
| 20260906040517 | 78 | 335 | 4.3 | 7.0 | 0.00 | 0.00 | 0.00 | 74 | 1010.9 |
| 20260906040057 | 78 | 18 | 4.3 | 7.0 | 0.00 | 0.00 | 0.00 | 75 | 1010.9 |
| 20260906035519 | 77 | 345 | 3.5 | 7.8 | 0.00 | 0.00 | 0.00 | 76 | 1010.8 |
| 20260906035020 | 77 | 30 | 4.3 | 7.8 | 0.00 | 0.00 | 0.00 | 77 | 1010.8 |
| 20260906034533 | 77 | 10 | 1.7 | 5.2 | 0.00 | 0.00 | 0.00 | 79 | 1010.8 |
| 20260906034019 | 77 | 39 | 2.6 | 5.2 | 0.00 | 0.00 | 0.00 | 80 | 1010.8 |
| 20260906033510 | 76 | 34 | 1.7 | 4.3 | 0.00 | 0.00 | 0.00 | 81 | 1010.7 |
| 20260906033033 | 76 | 357 | 0.9 | 4.3 | 0.00 | 0.00 | 0.00 | 81 | 1010.7 |
| 20260906032513 | 76 | 77 | 0.0 | 4.3 | 0.00 | 0.00 | 0.00 | 82 | 1010.6 |
| 20260906032013 | 76 | 39 | 2.6 | 4.3 | 0.00 | 0.00 | 0.00 | 82 | 1010.6 |
| 20260906031523 | 75 | 8 | 0.9 | 3.5 | 0.00 | 0.00 | 0.00 | 82 | 1010.6 |
| 20260906031013 | 75 | 320 | 0.9 | 2.6 | 0.00 | 0.00 | 0.00 | 82 | 1010.5 |
| 20260906030515 | 76 | 308 | 1.7 | 3.5 | 0.00 | 0.00 | 0.00 | 82 | 1010.4 |
| 20260906030029 | 76 | 304 | 2.6 | 3.5 | 0.00 | 0.00 | 0.00 | 82 | 1010.4 |
| 20260906025516 | 75 | 306 | 2.6 | 2.6 | 0.00 | 0.00 | 0.00 | 81 | 1010.4 |
| 20260906025018 | 76 | 295 | 1.7 | 1.7 | 0.00 | 0.00 | 0.00 | 82 | 1010.3 |
| 20260906024535 | 76 | 305 | 0.9 | 2.6 | 0.00 | 0.00 | 0.00 | 81 | 1010.3 |
| 20260906024011 | 76 | 306 | 1.7 | 3.5 | 0.00 | 0.00 | 0.00 | 81 | 1010.3 |
| 20260906023508 | 76 | 304 | 2.6 | 3.5 | 0.00 | 0.00 | 0.00 | 81 | 1010.3 |
| 20260906023016 | 76 | 296 | 1.7 | 2.6 | 0.00 | 0.00 | 0.00 | 81 | 1010.2 |
| 20260906022509 | 76 | 306 | 1.7 | 2.6 | 0.00 | 0.00 | 0.00 | 81 | 1010.2 |
| 20260906022012 | 76 | 305 | 0.0 | 2.6 | 0.00 | 0.00 | 0.00 | 82 | 1010.3 |
| 20260906021524 | 76 | 316 | 1.7 | 2.6 | 0.00 | 0.00 | 0.00 | 82 | 1010.3 |
| 20260906021015 | 77 | 311 | 1.7 | 2.6 | 0.00 | 0.00 | 0.00 | 82 | 1010.3 |
| 20260906020513 | 77 | 350 | 0.0 | 3.5 | 0.00 | 0.00 | 0.00 | 83 | 1010.3 |
| 20260906020030 | 77 | 309 | 1.7 | 3.5 | 0.00 | 0.00 | 0.00 | 83 | 1010.3 |
| 20260906015516 | 77 | 299 | 0.9 | 2.6 | 0.00 | 0.00 | 0.00 | 83 | 1010.3 |
| 20260906015014 | 77 | 328 | 1.7 | 3.5 | 0.00 | 0.00 | 0.00 | 83 | 1010.3 |
| 20260906014537 | 77 | 332 | 0.9 | 3.5 | 0.00 | 0.00 | 0.00 | 82 | 1010.3 |
| 20260906014016 | 77 | 321 | 0.9 | 2.6 | 0.00 | 0.00 | 0.00 | 82 | 1010.3 |
| 20260906013516 | 77 | 303 | 0.9 | 1.7 | 0.00 | 0.00 | 0.00 | 82 | 1010.3 |
| 20260906013012 | 77 | 330 | 0.9 | 2.6 | 0.00 | 0.00 | 0.00 | 81 | 1010.2 |
| 20260906012511 | 77 | 317 | 0.0 | 2.6 | 0.00 | 0.00 | 0.00 | 81 | 1010.2 |
| 20260906012010 | 77 | 310 | 1.7 | 2.6 | 0.00 | 0.00 | 0.00 | 81 | 1010.2 |
| 20260906011518 | 77 | 347 | 0.9 | 2.6 | 0.00 | 0.00 | 0.00 | 81 | 1010.2 |
| 20260906011009 | 78 | 325 | 0.9 | 2.6 | 0.00 | 0.00 | 0.00 | 81 | 1010.2 |
| 20260906010512 | 78 | 20 | 0.0 | 2.6 | 0.00 | 0.00 | 0.00 | 81 | 1010.1 |
| 20260906010026 | 78 | 32 | 0.0 | 2.6 | 0.00 | 0.00 | 0.00 | 81 | 1010.1 |
| 20260906005515 | 78 | 354 | 1.7 | 2.6 | 0.00 | 0.00 | 0.00 | 81 | 1010.2 |
| 20260906005013 | 77 | 8 | 0.9 | 1.7 | 0.00 | 0.00 | 0.00 | 81 | 1010.2 |
| 20260906004530 | 77 | 7 | 0.9 | 2.6 | 0.00 | 0.00 | 0.00 | 81 | 1010.2 |
| 20260906004021 | 77 | 341 | 1.7 | 2.6 | 0.00 | 0.00 | 0.00 | 82 | 1010.3 |
| 20260906003514 | 77 | 336 | 0.9 | 4.3 | 0.00 | 0.00 | 0.00 | 82 | 1010.3 |
| 20260906003037 | 77 | 307 | 1.7 | 4.3 | 0.00 | 0.00 | 0.00 | 82 | 1010.3 |
| 20260906002515 | 77 | 288 | 1.7 | 3.5 | 0.00 | 0.00 | 0.00 | 82 | 1010.3 |
| 20260906002016 | 78 | 308 | 2.6 | 3.5 | 0.00 | 0.00 | 0.00 | 81 | 1010.3 |
| 20260906001517 | 78 | 306 | 1.7 | 1.7 | 0.00 | 0.00 | 0.00 | 81 | 1010.2 |
| 20260906001010 | 79 | 305 | 1.7 | 1.7 | 0.00 | 0.00 | 0.00 | 81 | 1010.2 |
| 20260906000509 | 79 | 302 | 0.0 | 1.7 | 0.00 | 0.00 | 0.00 | 81 | 1010.2 |
| 20260906000020 | 79 | 38 | 0.9 | 1.7 | 0.00 | 0.00 | 0.00 | 82 | 1010.3 |
| 20260905235512 | 79 | 56 | 0.0 | 2.6 | 0.00 | 0.00 | 0.00 | 81 | 1010.2 |
| 20260905235013 | 79 | 30 | 0.9 | 2.6 | 0.00 | 0.00 | 0.00 | 81 | 1010.2 |
| 20260905234527 | 79 | 347 | 2.6 | 2.6 | 0.00 | 0.00 | 0.00 | 81 | 1010.3 |
| 20260905234015 | 79 | 4 | 0.0 | 0.0 | 0.00 | 0.00 | 0.00 | 82 | 1010.3 |
| 20260905233516 | 79 | 5 | 0.0 | 0.0 | 0.00 | 0.00 | 0.00 | 81 | 1010.3 |
| 20260905233035 | 79 | 5 | 0.0 | 0.0 | 0.00 | 0.00 | 0.00 | 81 | 1010.3 |
| 20260905232518 | 79 | 5 | 0.0 | 1.7 | 0.00 | 0.00 | 0.00 | 81 | 1010.3 |
| 20260905232016 | 79 | 4 | 0.0 | 2.6 | 0.00 | 0.00 | 0.00 | 81 | 1010.4 |
| 20260905231538 | 79 | 346 | 0.0 | 3.5 | 0.00 | 0.00 | 0.00 | 82 | 1010.5 |
| 20260905231015 | 79 | 308 | 0.9 | 3.5 | 0.00 | 0.00 | 0.00 | 82 | 1010.6 |
| 20260905230521 | 78 | 302 | 1.7 | 3.5 | 0.00 | 0.00 | 0.00 | 81 | 1010.6 |
| 20260905230018 | 79 | 313 | 2.6 | 3.5 | 0.00 | 0.00 | 0.00 | 81 | 1010.5 |
| 20260905225512 | 79 | 310 | 1.7 | 3.5 | 0.00 | 0.00 | 0.00 | 81 | 1010.5 |
| 20260905225014 | 79 | 300 | 2.6 | 3.5 | 0.00 | 0.00 | 0.00 | 81 | 1010.5 |
| 20260905224555 | 79 | 304 | 1.7 | 2.6 | 0.00 | 0.00 | 0.00 | 81 | 1010.5 |
| 20260905224014 | 79 | 303 | 1.7 | 1.7 | 0.00 | 0.00 | 0.00 | 81 | 1010.4 |
| 20260905223515 | 79 | 308 | 0.9 | 1.7 | 0.00 | 0.00 | 0.00 | 81 | 1010.5 |
| 20260905223031 | 79 | 301 | 1.7 | 2.6 | 0.00 | 0.00 | 0.00 | 81 | 1010.5 |
| 20260905222514 | 79 | 304 | 0.9 | 3.5 | 0.00 | 0.00 | 0.00 | 81 | 1010.6 |
| 20260905222015 | 79 | 306 | 1.7 | 3.5 | 0.00 | 0.00 | 0.00 | 81 | 1010.6 |
| 20260905221533 | 79 | 307 | 2.6 | 3.5 | 0.00 | 0.00 | 0.00 | 81 | 1010.6 |
| 20260905221018 | 79 | 332 | 1.7 | 3.5 | 0.00 | 0.00 | 0.00 | 81 | 1010.6 |
| 20260905220517 | 79 | 295 | 1.7 | 3.5 | 0.00 | 0.00 | 0.00 | 81 | 1010.6 |
| 20260905220035 | 80 | 143 | 0.0 | 0.0 | 0.00 | 0.00 | 0.00 | 81 | 1010.6 |
| 20260905215520 | 80 | 142 | 0.0 | 0.0 | 0.00 | 0.00 | 0.00 | 81 | 1010.6 |
| 20260905215023 | 80 | 142 | 0.0 | 0.0 | 0.00 | 0.00 | 0.00 | 82 | 1010.6 |
| 20260905214520 | 81 | 142 | 0.0 | 0.0 | 0.00 | 0.00 | 0.00 | 81 | 1010.6 |
| 20260905214014 | 80 | 142 | 0.0 | 0.0 | 0.00 | 0.00 | 0.00 | 81 | 1010.6 |
| 20260905213513 | 81 | 142 | 0.0 | 0.0 | 0.00 | 0.00 | 0.00 | 80 | 1010.6 |
| 20260905213029 | 81 | 333 | 0.0 | 0.0 | 0.00 | 0.00 | 0.00 | 80 | 1010.6 |
| 20260905212521 | 81 | 333 | 0.0 | 1.7 | 0.00 | 0.00 | 0.00 | 80 | 1010.7 |
| 20260905212014 | 81 | 333 | 0.0 | 4.3 | 0.00 | 0.00 | 0.00 | 80 | 1010.7 |
| 20260905211541 | 81 | 167 | 0.0 | 6.1 | 0.00 | 0.00 | 0.00 | 80 | 1010.7 |
| 20260905211015 | 81 | 150 | 3.5 | 7.0 | 0.00 | 0.00 | 0.00 | 80 | 1010.6 |
| 20260905210516 | 81 | 158 | 5.2 | 7.0 | 0.00 | 0.00 | 0.00 | 80 | 1010.6 |
| 20260905210019 | 81 | 135 | 5.2 | 6.1 | 0.00 | 0.00 | 0.00 | 79 | 1010.7 |
| 20260905205507 | 80 | 150 | 4.3 | 5.2 | 0.00 | 0.00 | 0.00 | 79 | 1010.8 |
| 20260905205009 | 80 | 154 | 0.9 | 1.7 | 0.00 | 0.00 | 0.00 | 79 | 1010.9 |
| 20260905204516 | 80 | 221 | 0.9 | 2.6 | 0.00 | 0.00 | 0.00 | 79 | 1011.0 |
| 20260905204009 | 80 | 221 | 0.9 | 2.6 | 0.00 | 0.00 | 0.00 | 79 | 1011.0 |
| 20260905203510 | 81 | 242 | 1.7 | 2.6 | 0.00 | 0.00 | 0.00 | 79 | 1011.0 |
| 20260905203026 | 81 | 233 | 1.7 | 3.5 | 0.00 | 0.00 | 0.00 | 79 | 1011.1 |
| 20260905202515 | 81 | 228 | 1.7 | 3.5 | 0.00 | 0.00 | 0.00 | 79 | 1011.1 |
| 20260905202014 | 81 | 209 | 1.7 | 3.5 | 0.00 | 0.00 | 0.00 | 78 | 1011.1 |
| 20260905201527 | 81 | 203 | 1.7 | 3.5 | 0.00 | 0.00 | 0.00 | 78 | 1011.1 |
| 20260905201014 | 81 | 229 | 0.9 | 2.6 | 0.00 | 0.00 | 0.00 | 78 | 1011.1 |
| 20260905200521 | 81 | 257 | 1.7 | 2.6 | 0.00 | 0.00 | 0.00 | 78 | 1011.0 |
| 20260905200033 | 81 | 247 | 1.7 | 3.5 | 0.00 | 0.00 | 0.00 | 78 | 1011.0 |
| 20260905195515 | 81 | 250 | 1.7 | 4.3 | 0.00 | 0.00 | 0.00 | 78 | 1011.0 |
| 20260905195015 | 81 | 281 | 3.5 | 5.2 | 0.00 | 0.00 | 0.00 | 78 | 1011.1 |
| 20260905194518 | 81 | 304 | 2.6 | 5.2 | 0.00 | 0.00 | 0.00 | 78 | 1011.1 |
| 20260905194008 | 81 | 300 | 3.5 | 5.2 | 0.00 | 0.00 | 0.00 | 78 | 1011.1 |
| 20260905193508 | 81 | 308 | 2.6 | 5.2 | 0.00 | 0.00 | 0.00 | 78 | 1011.0 |
| 20260905193018 | 81 | 291 | 1.7 | 5.2 | 0.00 | 0.00 | 0.00 | 78 | 1011.1 |
| 20260905192512 | 81 | 302 | 3.5 | 5.2 | 0.00 | 0.00 | 0.00 | 78 | 1011.0 |
| 20260905192011 | 81 | 297 | 3.5 | 6.1 | 0.00 | 0.00 | 0.00 | 77 | 1011.0 |
| 20260905191527 | 82 | 288 | 3.5 | 6.1 | 0.00 | 0.00 | 0.00 | 77 | 1011.0 |
| 20260905191016 | 82 | 295 | 2.6 | 6.1 | 0.00 | 0.00 | 0.00 | 77 | 1011.0 |
| 20260905190515 | 82 | 304 | 1.7 | 7.0 | 0.00 | 0.00 | 0.00 | 77 | 1011.1 |
| 20260905190031 | 82 | 354 | 4.3 | 7.0 | 0.00 | 0.00 | 0.00 | 77 | 1011.1 |
| 20260905185518 | 82 | 327 | 3.5 | 4.3 | 0.00 | 0.00 | 0.00 | 76 | 1011.2 |
| 20260905185014 | 82 | 285 | 0.0 | 3.5 | 0.00 | 0.00 | 0.00 | 76 | 1011.2 |
| 20260905184543 | 82 | 312 | 0.9 | 3.5 | 0.00 | 0.00 | 0.00 | 76 | 1011.2 |
| 20260905184019 | 82 | 318 | 1.7 | 3.5 | 0.00 | 0.00 | 0.00 | 76 | 1011.2 |
| 20260905183508 | 82 | 327 | 1.7 | 4.3 | 0.00 | 0.00 | 0.00 | 76 | 1011.2 |
| 20260905183013 | 82 | 307 | 1.7 | 5.2 | 0.00 | 0.00 | 0.00 | 76 | 1011.1 |
| 20260905182507 | 82 | 315 | 1.7 | 7.0 | 0.00 | 0.00 | 0.00 | 76 | 1011.1 |
| 20260905182012 | 82 | 320 | 3.5 | 7.0 | 0.00 | 0.00 | 0.00 | 76 | 1011.2 |
| 20260905181519 | 82 | 300 | 2.6 | 7.0 | 0.00 | 0.00 | 0.00 | 76 | 1011.0 |
| 20260905181014 | 82 | 41 | 0.9 | 7.0 | 0.00 | 0.00 | 0.00 | 76 | 1011.2 |
| 20260905180520 | 82 | 310 | 4.3 | 7.0 | 0.00 | 0.00 | 0.00 | 75 | 1011.2 |
| 20260905180027 | 82 | 304 | 2.6 | 6.1 | 0.00 | 0.00 | 0.00 | 75 | 1011.2 |
| 20260905175515 | 83 | 300 | 2.6 | 7.0 | 0.00 | 0.00 | 0.00 | 75 | 1011.2 |
| 20260905175016 | 83 | 295 | 1.7 | 7.8 | 0.00 | 0.00 | 0.00 | 75 | 1011.1 |
| 20260905174530 | 83 | 315 | 3.5 | 7.8 | 0.00 | 0.00 | 0.00 | 75 | 1011.1 |
| 20260905174016 | 83 | 316 | 4.3 | 7.0 | 0.00 | 0.00 | 0.00 | 75 | 1011.1 |
| 20260905173516 | 82 | 279 | 4.3 | 7.8 | 0.00 | 0.00 | 0.00 | 76 | 1011.0 |
| 20260905173039 | 83 | 253 | 6.1 | 8.7 | 0.00 | 0.00 | 0.00 | 75 | 1010.9 |
| 20260905172518 | 82 | 268 | 4.3 | 8.7 | 0.00 | 0.00 | 0.00 | 76 | 1010.9 |
| 20260905172014 | 82 | 268 | 7.0 | 10.4 | 0.00 | 0.00 | 0.00 | 76 | 1010.8 |
| 20260905171516 | 82 | 240 | 7.0 | 10.4 | 0.00 | 0.00 | 0.00 | 77 | 1010.8 |
| 20260905171011 | 82 | 246 | 7.8 | 10.4 | 0.00 | 0.00 | 0.00 | 77 | 1010.8 |
| 20260905170515 | 82 | 245 | 7.0 | 11.3 | 0.00 | 0.00 | 0.00 | 78 | 1010.8 |
| 20260905170033 | 82 | 258 | 7.8 | 11.3 | 0.00 | 0.00 | 0.00 | 78 | 1010.7 |
| 20260905165514 | 82 | 248 | 8.7 | 11.3 | 0.00 | 0.00 | 0.00 | 79 | 1010.7 |
| 20260905165015 | 82 | 250 | 9.6 | 12.2 | 0.00 | 0.00 | 0.00 | 79 | 1010.6 |
| 20260905164531 | 82 | 253 | 8.7 | 13.0 | 0.00 | 0.00 | 0.00 | 80 | 1010.5 |
| 20260905164017 | 82 | 235 | 9.6 | 13.0 | 0.00 | 0.00 | 0.00 | 80 | 1010.5 |
| 20260905163514 | 82 | 262 | 7.0 | 13.0 | 0.00 | 0.00 | 0.00 | 80 | 1010.4 |
| 20260905163031 | 82 | 238 | 9.6 | 15.6 | 0.00 | 0.00 | 0.00 | 80 | 1010.4 |
| 20260905162517 | 82 | 245 | 11.3 | 15.6 | 0.00 | 0.00 | 0.00 | 80 | 1010.3 |
| 20260905162019 | 82 | 250 | 8.7 | 16.5 | 0.00 | 0.00 | 0.00 | 81 | 1010.3 |
| 20260905161539 | 82 | 238 | 11.3 | 16.5 | 0.00 | 0.00 | 0.00 | 81 | 1010.3 |
| 20260905161015 | 82 | 248 | 11.3 | 15.6 | 0.00 | 0.00 | 0.00 | 80 | 1010.3 |
| 20260905160509 | 82 | 219 | 13.0 | 15.6 | 0.00 | 0.00 | 0.00 | 80 | 1010.3 |
| 20260905160016 | 82 | 212 | 11.3 | 14.8 | 0.00 | 0.00 | 0.00 | 80 | 1010.3 |
| 20260905155511 | 82 | 219 | 9.6 | 14.8 | 0.00 | 0.00 | 0.00 | 79 | 1010.3 |
| 20260905155012 | 82 | 230 | 10.4 | 14.8 | 0.00 | 0.00 | 0.00 | 79 | 1010.3 |
| 20260905154523 | 83 | 209 | 10.4 | 14.8 | 0.00 | 0.00 | 0.00 | 78 | 1010.3 |
| 20260905154016 | 83 | 217 | 10.4 | 13.9 | 0.00 | 0.00 | 0.00 | 78 | 1010.3 |
| 20260905153514 | 83 | 213 | 8.7 | 15.6 | 0.00 | 0.00 | 0.00 | 77 | 1010.2 |
| 20260905153028 | 83 | 212 | 9.6 | 15.6 | 0.00 | 0.00 | 0.00 | 77 | 1010.3 |
| 20260905152515 | 83 | 219 | 12.2 | 13.9 | 0.00 | 0.00 | 0.00 | 76 | 1010.4 |
| 20260905152018 | 84 | 207 | 8.7 | 13.9 | 0.00 | 0.00 | 0.00 | 76 | 1010.4 |
| 20260905151532 | 84 | 206 | 8.7 | 13.0 | 0.00 | 0.00 | 0.00 | 75 | 1010.3 |
| 20260905151018 | 84 | 199 | 8.7 | 14.8 | 0.00 | 0.00 | 0.00 | 75 | 1010.3 |
| 20260905150519 | 84 | 215 | 10.4 | 14.8 | 0.00 | 0.00 | 0.00 | 74 | 1010.3 |
| 20260905150039 | 84 | 215 | 10.4 | 14.8 | 0.00 | 0.00 | 0.00 | 75 | 1010.3 |
| 20260905145519 | 85 | 209 | 9.6 | 13.9 | 0.00 | 0.00 | 0.00 | 73 | 1010.3 |
| 20260905145011 | 84 | 233 | 10.4 | 13.9 | 0.00 | 0.00 | 0.00 | 69 | 1010.3 |
| 20260905144524 | 85 | 195 | 10.4 | 13.9 | 0.00 | 0.00 | 0.00 | 71 | 1010.3 |
| 20260905144017 | 85 | 214 | 8.7 | 13.9 | 0.00 | 0.00 | 0.00 | 70 | 1010.3 |
| 20260905143514 | 85 | 231 | 9.6 | 13.9 | 0.00 | 0.00 | 0.00 | 69 | 1010.4 |
| 20260905143024 | 85 | 243 | 11.3 | 13.9 | 0.00 | 0.00 | 0.00 | 70 | 1010.4 |
| 20260905142515 | 85 | 215 | 8.7 | 14.8 | 0.00 | 0.00 | 0.00 | 71 | 1010.4 |
| 20260905142016 | 85 | 212 | 11.3 | 15.6 | 0.00 | 0.00 | 0.00 | 70 | 1010.5 |
| 20260905141531 | 85 | 236 | 12.2 | 15.6 | 0.00 | 0.00 | 0.00 | 70 | 1010.4 |
| 20260905141017 | 85 | 210 | 9.6 | 13.0 | 0.00 | 0.00 | 0.00 | 69 | 1010.4 |
| 20260905140521 | 85 | 169 | 9.6 | 13.9 | 0.00 | 0.00 | 0.00 | 70 | 1010.4 |
| 20260905140036 | 85 | 173 | 9.6 | 13.9 | 0.00 | 0.00 | 0.00 | 65 | 1010.3 |
| 20260905135519 | 85 | 207 | 9.6 | 13.0 | 0.00 | 0.00 | 0.00 | 64 | 1010.4 |
| 20260905135019 | 85 | 150 | 10.4 | 13.9 | 0.00 | 0.00 | 0.00 | 63 | 1010.4 |
| 20260905134535 | 85 | 207 | 9.6 | 13.9 | 0.00 | 0.00 | 0.00 | 64 | 1010.4 |
| 20260905134015 | 85 | 207 | 8.7 | 14.8 | 0.00 | 0.00 | 0.00 | 65 | 1010.4 |
| 20260905133513 | 85 | 206 | 9.6 | 14.8 | 0.00 | 0.00 | 0.00 | 64 | 1010.5 |
| 20260905133033 | 85 | 194 | 8.7 | 15.6 | 0.00 | 0.00 | 0.00 | 69 | 1010.5 |
| 20260905132512 | 85 | 224 | 12.2 | 15.6 | 0.00 | 0.00 | 0.00 | 69 | 1010.6 |
| 20260905132014 | 85 | 191 | 10.4 | 15.6 | 0.00 | 0.00 | 0.00 | 69 | 1010.6 |
| 20260905131529 | 85 | 209 | 10.4 | 15.6 | 0.00 | 0.00 | 0.00 | 70 | 1010.5 |
| 20260905131016 | 85 | 173 | 8.7 | 13.9 | 0.00 | 0.00 | 0.00 | 71 | 1010.6 |
| 20260905130516 | 85 | 223 | 10.4 | 13.9 | 0.00 | 0.00 | 0.00 | 71 | 1010.6 |
| 20260905130029 | 85 | 211 | 9.6 | 15.6 | 0.00 | 0.00 | 0.00 | 70 | 1010.7 |
| 20260905125521 | 85 | 159 | 11.3 | 15.6 | 0.00 | 0.00 | 0.00 | 71 | 1010.6 |
| 20260905125016 | 86 | 184 | 8.7 | 13.9 | 0.00 | 0.00 | 0.00 | 70 | 1010.6 |
| 20260905124534 | 85 | 205 | 8.7 | 13.9 | 0.00 | 0.00 | 0.00 | 72 | 1010.6 |
| 20260905124020 | 85 | 210 | 10.4 | 14.8 | 0.00 | 0.00 | 0.00 | 71 | 1010.7 |
| 20260905123520 | 85 | 172 | 7.8 | 14.8 | 0.00 | 0.00 | 0.00 | 72 | 1010.6 |